Погода в Саскатуне

Канада     52°09′04″N   106°38′49″W
темп.,
°C
ветер,
м/с
пор.,
м/с
влажн.,
%
обл.,
%
осадки,
мм/ч
давл.,
гПа
погр.,
м
17 мая, вт
вт1700:00+10в61166100 0.0 1011582
03:00+9в51081100 0.0 1010473
06:00+8в5987100 0.2 1009344
09:00+11всв457494 0.0 1009626
12:00+14всв4565100 0.4 10081073
15:00+14ссв4466100 0.1 1008939
18:00+12ссв6671100 0.2 1009687
21:00+10ссв4677100 0.0 1011515
18 мая, ср
ср1800:00+8ссв4583100 0.3 1011428
03:00+7ссв4586100 0.4 1010543
06:00+6ссв5789100 0.5 1012559
09:00+6св6786100 0.1 1014711
12:00+6в3485100 0.1 1014733
15:00+7юв347798 0.1 1011674
18:00+9ююв4669100 0.1 1008805
21:00+7вюв61079100 0.0 1006570
19 мая, чт
чт1900:00+7вюв71284100 0.1 1003780
03:00+5в81493100 5.8 1000842
06:00+3всв101797100 19.1 999860
09:00+3всв111896100 4.9 10011118
12:00+5св101589100 6.1 10041335
15:00+8св91361100 0.8 10061704
18:00+8ссв61062100 0.9 10091379
21:00+5с4105396 0.0 1011217
20 мая, пт
пт2000:00+3ссз486220 0.0 1013147
03:00+2с5116498 0.0 1016326
06:00+3ссз596399 0.0 1018510
09:00+5ссз694699 0.0 10191311
12:00+7с71039100 0.0 10191971
15:00+8с81039100 0.0 10192207
18:00+9с4840100 0.0 10202164
21:00+6зюз225651 0.0 102123
21 мая, сб
сб2100:00+4зсз356674 0.0 102279
03:00+4ссз347148 0.0 102365
06:00+3ссз23705 0.0 102442
09:00+9ссз34505 0.0 1023525
12:00+13ссз443499 0.0 10222533
15:00+14сз3332100 0.0 10212346
18:00+14зсз333495 0.0 10202154
21:00+10юз22475 0.0 102017